Other Surface Observations
Issued by NWS Great Falls, MT

Home | Current Version | Previous Version | Text Only | Print | Product List | Glossary On
Versions: 1 2 3 4 5 6 7 8 9 10 11 12 13 14 15 16 17 18 19 20 21 22 23 24 25 26 27 28 29 30 31 32 33 34 35 36 37 38 39 40 41 42 43 44 45 46 47 48 49 50
000
SXUS55 KTFX 220821
OSOTFX

AREA AWOS OBSERVATIONS
NATIONAL WEATHER SERVICE GREAT FALLS MT
0221 AM MDT Sun Oct 22 2017

METAR KCII 220820Z AUTO 22023G32KT 10SM 10/M00 A2969 RMK A01
METAR K6S0 220820Z AUTO 26029KT 10SM CLR 09/M03 A2988 RMK A01
METAR K6S8 220815Z AUTO 24011KT 10SM 06/M06 A2989 RMK A01



USA.gov is the U.S. government's official web portal to all federal, state and local government web resources and services.